GFSFLT2_850_temp_123.txt.gz
Temp
23 22 22 22 21 21 20 20 19 19 18 17 17 16 16 16 16 16 15 15 15 15 14 14 14 14 14 14 14 14 14 14
22 22 22 22 21 20 20 19 19 19 18 17 16 16 16 16 15 15 15 15 15 15 14 14 14 13 13 13 14 14 14 14
22 22 22 22 21 21 20 19 19 19 18 17 16 16 15 15 15 14 14 14 14 15 14 14 13 13 13 14 13 13 13 13
22 22 22 22 21 21 20 19 19 19 18 17 16 16 15 15 15 14 14 13 14 14 14 14 14 13 14 13 13 13 13 13
23 22 21 21 21 21 20 20 19 19 18 17 17 15 15 14 15 14 14 14 13 14 13 13 13 13 13 13 13 13 13 13
23 23 21 21 20 21 20 20 19 19 18 17 17 16 14 15 14 14 14 14 14 14 14 14 13 13 13 13 12 12 12 12
23 23 23 21 20 20 20 20 20 18 18 17 17 16 15 14 14 14 14 15 14 14 14 13 13 13 13 13 12 12 12 12
22 22 22 22 21 20 20 19 19 18 17 16 16 16 15 15 14 14 14 14 14 14 13 13 13 13 13 12 12 12 12 12
22 22 22 22 22 20 18 19 17 17 17 15 15 15 15 15 14 13 13 13 14 13 13 13 13 12 12 12 12 12 12 12
22 22 21 22 22 21 19 17 17 15 16 16 15 15 14 14 14 13 14 13 13 13 13 13 12 12 11 13 12 12 12 12
23 22 22 21 21 20 19 18 16 15 15 16 16 15 14 14 14 13 13 13 13 13 12 13 12 12 12 12 12 13 13 12
24 23 22 21 21 20 18 17 16 16 15 15 16 15 14 13 13 13 13 13 13 13 12 12 12 12 11 11 12 13 12 12
24 23 22 21 20 20 18 18 16 15 15 14 15 14 13 14 13 13 12 13 13 13 12 12 12 11 11 11 11 12 12 12
24 23 22 21 21 20 19 19 17 16 14 13 13 13 13 13 13 13 12 12 12 12 12 12 12 11 11 11 10 11 12 11
24 23 22 21 20 19 17 16 15 15 14 13 13 13 14 12 13 12 12 12 12 12 12 12 12 11 11 11 10 10 11 11
23 22 21 20 19 18 18 18 16 15 14 13 13 13 13 13 12 12 12 12 11 11 12 12 12 11 10 10 11 11 11 11
23 22 21 20 19 19 18 17 16 15 15 13 13 12 13 12 12 11 11 11 11 11 11 11 12 12 11 10 10 11 11 11
21 21 21 19 19 18 17 17 15 15 14 13 12 12 12 12 11 11 11 11 11 11 11 11 11 11 11 10 10 10 11 11
19 19 18 18 18 18 17 16 15 14 14 13 13 12 12 11 11 11 11 11 11 11 11 11 11 11 11 10 10 10 12 12
17 17 15 16 17 17 16 15 15 14 14 14 13 13 12 11 11 11 11 11 11 11 11 10 11 10 10 9 10 10 10 12

GFSFLT2_850_temp_129.txt.gz
Temp
23 22 22 22 22 22 21 20 20 19 18 17 17 17 17 17 16 15 14 14 15 15 15 15 14 14 14 14 14 14 14 14
23 23 22 22 22 22 21 21 20 19 18 17 17 17 16 17 16 15 15 14 15 15 15 15 13 14 14 14 14 14 14 14
22 23 22 22 22 21 21 21 20 19 18 17 17 16 16 16 16 15 15 14 15 15 15 15 14 14 14 14 14 13 13 14
23 23 22 22 22 21 21 21 20 19 19 18 17 16 16 16 16 15 14 14 14 15 15 15 14 14 13 13 14 13 13 13
23 22 22 22 22 21 21 21 20 19 19 18 17 16 16 15 15 15 15 14 14 14 14 15 14 14 13 13 14 13 13 13
23 22 22 22 21 21 21 20 20 20 20 18 18 17 16 15 15 15 15 15 14 15 15 14 14 13 13 13 13 13 13 13
22 22 22 21 21 21 21 20 20 20 20 19 18 17 17 16 15 15 15 15 14 14 15 14 14 13 13 13 13 13 13 13
20 21 21 21 21 21 21 21 20 20 20 19 18 17 17 16 15 15 14 15 14 14 15 14 14 13 13 13 13 13 12 12
20 21 21 21 21 20 20 20 20 20 20 19 18 17 17 16 16 15 15 15 14 14 14 14 14 13 13 12 12 12 12 12
21 20 20 21 21 20 20 20 20 20 19 19 18 18 17 16 16 15 15 14 14 13 14 13 13 13 12 12 12 11 11 11
22 21 20 21 21 20 20 20 19 19 19 18 18 17 17 15 15 15 14 14 14 13 13 13 13 13 12 12 11 11 11 11
22 22 21 21 21 20 19 18 18 18 19 18 18 17 16 15 14 15 14 14 13 13 13 13 13 13 12 12 11 11 11 11
22 22 22 21 20 19 19 19 19 18 18 17 17 16 16 15 14 14 14 14 14 13 12 12 12 12 12 11 11 11 11 11
21 21 22 22 22 21 20 20 18 19 18 17 16 16 15 15 15 14 14 14 13 13 12 12 12 12 11 11 10 10 10 11
21 21 21 22 22 21 19 18 17 18 17 17 17 15 15 14 14 13 13 13 13 13 12 12 12 12 11 11 10 10 10 11
21 22 21 21 21 21 20 21 20 20 20 18 16 14 14 14 14 13 12 12 12 12 12 13 13 12 11 11 11 11 10 10
20 21 19 20 21 21 22 20 20 19 19 18 16 14 14 14 13 13 13 12 12 12 12 12 12 12 12 12 11 11 11 11
19 20 18 18 20 21 20 19 19 19 19 18 16 14 14 13 13 13 13 13 12 12 12 12 12 12 12 11 12 11 11 11
19 19 17 17 18 19 19 18 19 19 19 18 17 15 14 14 14 13 13 12 12 12 11 11 12 12 12 12 12 11 10 11
18 19 18 15 16 17 16 17 18 19 18 18 17 16 15 14 14 13 13 12 12 12 11 11 11 12 11 11 12 11 11 10

GFSFLT2_850_temp_132.txt.gz
Temp
22 21 21 21 21 21 21 21 20 19 18 18 17 17 16 15 15 15 15 14 14 14 15 15 15 15 15 14 15 14 14 14
21 21 21 21 21 21 21 21 21 19 19 18 17 16 16 15 15 15 15 14 14 15 15 14 15 15 15 14 15 14 14 14
22 21 21 21 21 21 21 21 21 20 19 18 17 16 16 16 15 15 14 14 14 14 15 14 15 14 15 15 14 14 13 13
20 21 21 21 21 21 21 21 21 21 19 18 17 17 16 16 15 15 14 14 14 14 14 15 15 15 14 14 14 14 14 13
20 19 20 20 20 20 21 21 21 20 20 19 18 17 16 16 15 15 14 13 13 14 14 14 14 14 14 14 14 14 14 13
19 19 19 19 20 20 20 21 21 20 20 19 18 17 16 16 15 15 14 13 14 14 14 14 14 14 14 14 14 14 13 13
19 18 18 19 19 20 20 20 21 20 20 20 19 18 17 16 15 15 15 14 14 14 14 14 14 14 14 13 13 13 13 13
20 19 18 19 19 20 20 20 20 20 20 20 20 18 18 16 15 15 14 14 14 14 14 14 14 14 14 13 13 13 13 12
21 20 20 19 19 19 20 20 20 20 20 20 19 18 18 17 16 15 15 15 14 14 14 14 14 14 13 13 13 13 12 12
21 21 21 20 20 19 19 20 20 20 20 19 19 19 17 17 16 15 15 14 14 14 14 14 13 13 13 13 12 12 12 11
21 21 21 21 20 20 19 19 19 20 19 19 19 18 18 17 17 16 14 14 14 14 13 13 13 13 13 12 12 12 11 11
20 20 21 22 20 20 18 18 18 19 19 19 18 18 18 17 16 16 15 14 14 13 13 13 13 13 12 12 12 12 11 11
19 20 20 21 19 19 18 18 19 19 19 18 18 18 17 17 16 16 15 14 14 13 13 13 13 12 12 11 11 11 10 10
18 19 20 21 20 21 20 19 19 19 18 18 17 18 17 16 16 16 15 15 14 13 13 13 12 12 12 11 10 10 10 10
18 19 20 20 20 19 18 17 17 17 17 18 18 17 17 16 16 15 15 15 15 14 13 13 13 12 12 12 10 10 10 11
18 19 19 20 20 19 19 20 18 20 20 19 18 17 17 16 15 14 14 14 14 14 13 12 12 12 12 11 11 11 10 10
19 19 19 19 19 19 19 19 21 21 19 18 18 18 17 15 15 14 13 13 13 13 13 12 12 12 13 13 11 11 11 12
17 19 19 19 17 18 17 17 20 19 18 17 18 18 18 15 14 14 14 13 13 12 13 12 12 12 12 12 12 11 10 11
18 19 20 19 18 16 16 16 18 20 20 18 17 18 18 18 14 14 14 13 13 13 13 12 12 12 12 12 12 12 12 11
18 20 20 19 17 15 14 15 16 16 17 18 18 20 19 18 15 14 14 13 13 13 12 12 12 12 12 12 12 12 12 11

GFSFLT2_850_temp_138.txt.gz
Temp
21 20 20 20 19 19 19 18 18 18 17 17 16 16 16 16 16 16 16 16 16 16 15 15 15 15 15 15 14 15 15 14
21 20 21 20 19 18 18 18 17 18 17 17 16 16 16 16 16 16 16 15 15 15 15 15 15 15 15 15 15 15 14 13
20 20 20 20 19 18 17 17 16 16 17 16 16 15 15 16 16 16 15 15 15 15 14 14 15 15 15 14 14 14 13 13
18 20 20 20 19 19 18 16 16 15 15 16 15 14 14 14 16 15 15 15 15 14 14 14 14 14 14 14 13 13 13 14
17 19 20 20 20 19 18 17 16 14 14 14 14 14 14 14 15 15 15 14 14 14 14 14 14 14 13 14 13 13 14 13
16 16 19 20 20 19 18 17 17 17 16 14 14 14 13 14 14 14 13 13 14 13 13 13 14 14 14 14 13 13 13 14
17 15 16 19 19 20 19 18 17 17 17 16 14 14 14 14 14 14 14 14 14 13 13 13 13 13 13 13 13 13 13 13
17 16 15 15 19 20 20 19 18 18 17 17 16 14 14 14 14 14 14 13 13 13 13 13 13 13 14 13 13 13 13 13
16 16 15 14 14 16 20 20 19 19 18 18 17 15 16 17 15 14 13 13 13 13 12 14 13 12 13 13 13 13 13 13
14 15 16 15 14 14 14 18 20 19 18 19 18 17 15 17 15 14 13 13 13 12 13 14 14 14 12 13 14 13 13 13
14 14 14 15 14 14 14 14 17 20 19 20 19 18 17 16 15 15 15 13 12 13 14 14 14 14 14 14 13 13 12 12
13 13 13 15 16 14 14 14 14 15 15 19 20 19 18 16 14 16 16 14 12 12 14 13 12 14 14 13 13 13 13 12
13 13 13 13 15 15 14 15 14 14 15 18 18 19 18 18 14 15 17 16 16 15 14 12 13 12 12 12 12 13 13 12
12 12 13 13 14 15 15 14 15 14 14 17 18 19 19 18 17 16 17 16 16 15 13 12 12 12 12 12 11 11 11 11
12 13 13 13 14 15 14 13 13 14 14 14 17 18 19 18 17 17 17 16 16 16 13 12 12 12 12 13 13 14 12 10
10 12 12 13 13 15 15 14 13 14 14 14 17 18 18 19 17 16 17 16 16 16 14 12 12 12 12 12 14 15 14 11
6 11 12 13 13 13 15 14 14 16 14 13 13 17 18 18 18 17 17 17 16 16 15 13 12 13 11 12 13 12 13 14
6 10 12 12 12 13 14 14 14 15 14 13 14 17 19 18 17 17 18 17 16 16 16 15 13 12 12 12 12 12 13 13
3 9 11 12 12 13 14 14 14 14 15 17 14 15 15 19 18 18 18 18 17 16 15 15 14 12 12 12 12 12 12 13
2 7 11 12 13 13 14 14 15 15 16 20 14 14 18 20 19 18 18 17 17 16 15 15 14 14 12 12 12 12 12 12